Regional Weather Roundup
Issued by NWS Binghamton, NY

Home | Current Version | Previous Version | Text Only | Print | Product List | Glossary On
Versions: 1 2 3 4 5 6 7 8 9 10 11 12 13 14 15 16 17 18 19 20 21 22 23 24 25 26 27 28 29 30 31 32 33 34 35 36 37 38 39 40 41 42 43 44 45 46 47 48 49 50
000
ASUS41 KBGM 021310
RWRBGM
RWRBGM
BINGHAMTON REGIONAL WEATHER ROUNDUP
NATIONAL WEATHER SERVICE BINGHAMTON NY
900 AM EDT TUE JUN 02 2015

Note: "fair" indicates few or no clouds below 12,000 feet with no
significant weather and/or obstructions to visibility.

* = Station(s) that does not report precipitation, such as rain,
snow, etc, also no thunder or fog.

!NYZ009-015>018-022>025-036-037-044>046-055>057-062-021400
...CENTRAL NEW YORK...

CITY           SKY/WX    TMP DP  RH WIND       PRES   REMARKS
BINGHAMTON     CLOUDY    51  50  96 N8        30.14R FOG
CORTLAND       CLOUDY    54  50  87 N5        30.18R
DANSVILLE      CLOUDY    52  49  89 NW9       30.20R
ELMIRA         CLOUDY    53  51  93 NE7       30.17R FOG
ITHACA         CLOUDY    51  51 100 NW7       30.18R FOG
MONTICELLO     CLOUDY    46  45  93 E7        30.15R
ONEONTA        CLOUDY    48  48 100 CALM      30.15R FOG
PENN YAN       CLOUDY    52  48  86 N7        30.19R
ROME           CLOUDY    51  49  92 E6        30.19R
SIDNEY         CLOUDY    55  54  94 CALM      30.15S
SYRACUSE       CLOUDY    53  51  93 N6        30.18R
$$

!PAZ038>040-043-044-047-048-072-021400
...NORTHEAST PENNSYLVANIA...

CITY           SKY/WX    TMP DP  RH WIND       PRES   REMARKS
HAZLETON       LGT RAIN  52  50  93 CALM      30.15R
SCRANTON       LGT RAIN  53  49  86 N6        30.13R
TOWANDA*       CLOUDY    55  50  82 MISG      30.16R
$$
&&
KEY
WCI = WIND CHILL INDEX
VSB = VISIBILITY
HX  = HEAT INDEX
$$


USA.gov is the U.S. government's official web portal to all federal, state and local government web resources and services.